Weather in Togliatti

Russia / Samara Oblast     53°30′31″N   49°25′09″E
temp.,
°C
wind,
m/s
gust,
m/s
humid.,
%
clouds,
%
prec.,
mm/h
press.,
hPa
HPBL,
m
21 june, mon
mon2101:00+20nne00840 0.0 102211
04:00+19ne11870 0.0 102211
07:00+21s01790 0.0 1022105
10:00+23ssw22720 0.8 1022538
13:00+25wsw33610 0.1 10221049
16:00+26w12552 0.1 10211059
19:00+27wsw115651 0.0 1021595
22:00+23ese00675 0.0 102211
22 june, tue
tue2201:00+21se11705 0.0 102211
04:00+20e01750 0.0 102211
07:00+22nw11692 0.0 102398
10:00+25nw11600 0.0 1022746
13:00+26w225713 0.0 10221284
16:00+27wnw12500 0.0 10221306
19:00+28nne12546 0.0 1021611
22:00+24e116640 0.0 102111
23 june, wed
wed2301:00+22ene017095 0.0 102111
04:00+20ne11762 0.0 102111
07:00+23n22681 0.0 1021127
10:00+26nw23590 0.0 1021613
13:00+27wnw34560 0.1 10201314
16:00+29nnw45461 0.1 10191326
19:00+28nw23530 0.0 1018581
22:00+22w22730 0.0 101924
24 june, thu
thu2401:00+20n11790 0.0 101911
04:00+19n22840 0.0 101917
07:00+21nw22750 0.0 1019134
10:00+25nw23631 0.0 1018483
13:00+27nw23530 0.0 10181067
16:00+28n23515 0.0 10161353
19:00+26e356237 0.0 1017195
22:00+20sw2392100 4.3 101758
25 june, fri
fri2501:00+19ssw119041 0.0 101611
04:00+18w118945 0.0 101611
07:00+20wnw11845 0.0 101785
10:00+23w11688 0.0 1016390
13:00+25w326140 0.0 1016939
16:00+27wnw125419 0.0 10151060
19:00+26nnw23593 0.0 1013416
22:00+22sse116241 0.0 101312